BEIDOU-3 M14

Last updated on July 14, 2020, 5:23 a.m. UTC

1 43623U 18072B   20195.70786108  .00000006  00000-0  00000-0 0  9996
2 43623  55.1492 135.0256 0006651 312.3198 246.4397  1.86232097 12346
UTC
Height (km)
Latitude
Longitude
Inclination
Orbital Period
UTC large
Height (km)
Speed (km/s)
/
Latitude / Longitude
Inclination (degrees)
Orbital Period (minutes)
Azimuth
Elevation
Range (km)
Doppler Factor
iOS Compass Heading
iOS Angle

Next 30 passes for location: Hong Kong

Rise time Rise Azimuth (degrees) Set time Set Azimuth (degrees) Duration Max altitude (degrees)

No matching passes for this satellites